Location: Dead Woman Crossing
(43.5369°N, 106.3228°W)
Time: 10:41:13
(UTC+00:00)

STARS - Visible Passes

Search period start: 29 June 2022 00:00
Search period end: 09 July 2022 00:00
Orbit: 622 x 636 km, 98.2° (Epoch: 28 June)

Date Brightness Start Highest point End Pass type
(mag) Time Alt. Az. Time Alt. Az. Time Alt. Az.
29 Jun ? 05:44:47 10° NNE 05:49:11 75° ESE 05:50:01 56° SSE visible
29 Jun ? 07:23:03 10° NW 07:24:50 12° WNW 07:26:36 10° W visible
30 Jun ? 04:30:56 10° ENE 04:32:32 12° E 04:32:58 12° E visible
30 Jun ? 06:04:54 10° N 06:09:15 67° WNW 06:10:19 48° SW visible
01 Jul ? 04:49:42 10° NE 04:52:50 19° E 04:53:16 19° E visible
01 Jul ? 06:25:10 10° N 06:29:17 41° WNW 06:30:37 32° WSW visible
02 Jul ? 05:09:13 10° NE 05:13:05 30° E 05:13:34 29° ESE visible
02 Jul ? 06:45:35 10° N 06:49:15 26° WNW 06:50:55 21° WSW visible
03 Jul ? 05:29:00 10° NNE 05:33:16 49° E 05:33:51 46° SE visible
03 Jul ? 07:06:16 10° NNW 07:09:09 17° WNW 07:11:12 13° W visible
04 Jul ? 05:48:59 10° NNE 05:53:23 82° ESE 05:54:09 60° S visible
04 Jul ? 07:27:38 10° NW 07:28:59 11° WNW 07:30:20 10° WNW visible
05 Jul ? 04:34:47 10° ENE 04:36:47 13° E 04:37:05 13° E visible
05 Jul ? 06:09:07 10° N 06:13:27 61° WNW 06:14:25 47° SW visible
06 Jul ? 04:53:46 10° NE 04:57:03 21° E 04:57:22 20° E visible
06 Jul ? 06:29:24 10° N 06:33:27 38° WNW 06:34:42 31° WSW visible
07 Jul ? 05:13:20 10° NNE 05:17:17 33° E 05:17:38 32° ESE visible
07 Jul ? 06:49:52 10° NNW 06:53:23 24° WNW 06:54:59 20° W visible
08 Jul ? 05:33:09 10° NNE 05:37:26 54° E 05:37:55 51° SE visible
08 Jul ? 07:10:36 10° NNW 07:13:16 16° WNW 07:15:16 12° W visible
